| time (UTC) | temp F | wind direction | speed MPH | gust MPH | rain 1hr in | rain 24hr in | rain mn in | humidity % | barometer mb |
| 20260901094528 | 58 | 327 | 0.0 | 2.0 | 0.00 | 0.00 | 0.00 | 22 | 1006.2 |
| 20260901093025 | 59 | 41 | 0.0 | 2.0 | 0.00 | 0.00 | 0.00 | 28 | 1006.0 |
| 20260901091522 | 59 | 248 | 0.0 | 2.0 | 0.00 | 0.00 | 0.00 | 39 | 1006.0 |
| 20260901090032 | 59 | 302 | 0.0 | 3.0 | 0.00 | 0.00 | 0.00 | 42 | 1006.1 |
| 20260901084518 | 59 | 286 | 1.0 | 4.0 | 0.00 | 0.00 | 0.00 | 45 | 1006.0 |
| 20260901083015 | 59 | 40 | 1.0 | 2.0 | 0.00 | 0.00 | 0.00 | 34 | 1006.3 |
| 20260901081511 | 59 | 26 | 0.0 | 1.0 | 0.00 | 0.00 | 0.00 | 39 | 1006.0 |
| 20260901080014 | 59 | 319 | 0.0 | 3.0 | 0.00 | 0.00 | 0.00 | 46 | 1006.6 |
| 20260901074506 | 59 | 70 | 0.0 | 2.0 | 0.00 | 0.00 | 0.00 | 46 | 1006.3 |
| 20260901073004 | 59 | 103 | 0.0 | 1.0 | 0.00 | 0.00 | 0.00 | 47 | 1006.4 |
| 20260901071603 | 59 | 100 | 0.0 | 2.0 | 0.00 | 0.00 | 0.00 | 46 | 1006.4 |
| 20260901070100 | 59 | 100 | 0.0 | 1.0 | 0.00 | 0.00 | 0.00 | 43 | 1006.6 |
| 20260901064605 | 59 | 100 | 0.0 | 1.0 | 0.00 | 0.00 | 0.00 | 41 | 1006.2 |
| 20260901063100 | 60 | 100 | 0.0 | 2.0 | 0.00 | 0.00 | 0.00 | 43 | 1006.2 |
| 20260901061545 | 60 | 100 | 0.0 | 1.0 | 0.00 | 0.00 | 0.00 | 43 | 1006.4 |
| 20260901060044 | 60 | 83 | 0.0 | 1.0 | 0.00 | 0.00 | 0.00 | 38 | 1006.3 |
| 20260901054542 | 60 | 129 | 0.0 | 3.0 | 0.00 | 0.00 | 0.00 | 40 | 1006.2 |
| 20260901053037 | 60 | 78 | 0.0 | 1.0 | 0.00 | 0.00 | 0.00 | 40 | 1006.1 |
| 20260901051536 | 60 | 82 | 0.0 | 4.0 | 0.00 | 0.00 | 0.00 | 44 | 1006.3 |
| 20260901050034 | 60 | 82 | 0.0 | 3.0 | 0.00 | 0.00 | 0.00 | 48 | 1006.3 |
| 20260901044531 | 61 | 172 | 0.0 | 3.0 | 0.00 | 0.00 | 0.00 | 49 | 1006.2 |
| 20260901043032 | 60 | 136 | 0.0 | 1.0 | 0.00 | 0.00 | 0.00 | 45 | 1006.1 |
| 20260901041527 | 60 | 153 | 0.0 | 5.0 | 0.00 | 0.00 | 0.00 | 45 | 1006.3 |
| 20260901040026 | 59 | 267 | 1.0 | 3.0 | 0.00 | 0.00 | 0.00 | 48 | 1006.1 |
| 20260901034523 | 60 | 197 | 0.0 | 2.0 | 0.00 | 0.00 | 0.00 | 45 | 1005.7 |
| 20260901033031 | 60 | 67 | 0.0 | 4.0 | 0.00 | 0.00 | 0.00 | 47 | 1005.5 |
| 20260901031522 | 60 | 141 | 0.0 | 1.0 | 0.00 | 0.00 | 0.00 | 46 | 1005.5 |
| 20260901030015 | 59 | 141 | 0.0 | 2.0 | 0.00 | 0.00 | 0.00 | 46 | 1005.4 |
| 20260901024514 | 59 | 125 | 1.0 | 3.0 | 0.00 | 0.00 | 0.00 | 53 | 1005.0 |
| 20260901023012 | 59 | 146 | 1.0 | 3.0 | 0.00 | 0.00 | 0.00 | 44 | 1004.7 |
| 20260901021512 | 60 | 94 | 2.0 | 7.0 | 0.00 | 0.00 | 0.00 | 44 | 1004.9 |
| 20260901020008 | 61 | 106 | 4.0 | 10.0 | 0.00 | 0.00 | 0.00 | 47 | 1004.5 |
| 20260901014505 | 63 | 117 | 4.0 | 9.0 | 0.00 | 0.00 | 0.00 | 45 | 1004.6 |
| 20260901013004 | 64 | 101 | 3.0 | 10.0 | 0.00 | 0.00 | 0.00 | 44 | 1004.5 |
| 20260901011500 | 65 | 111 | 5.0 | 9.0 | 0.00 | 0.00 | 0.00 | 43 | 1004.7 |
| 20260901010100 | 65 | 69 | 4.0 | 10.0 | 0.00 | 0.00 | 0.00 | 42 | 1004.8 |
| 20260901004601 | 66 | 98 | 6.0 | 12.0 | 0.00 | 0.00 | 0.00 | 42 | 1004.8 |
| 20260901003102 | 66 | 103 | 6.0 | 11.0 | 0.00 | 0.00 | 0.00 | 42 | 1004.9 |
| 20260901001553 | 67 | 69 | 6.0 | 10.0 | 0.00 | 0.00 | 0.00 | 42 | 1004.8 |
| 20260901000052 | 68 | 96 | 4.0 | 10.0 | 0.00 | 0.00 | 0.00 | 42 | 1005.0 |
| 20260831234550 | 67 | 97 | 5.0 | 10.0 | 0.00 | 0.00 | 0.00 | 42 | 1005.1 |
| 20260831233048 | 67 | 91 | 6.0 | 12.0 | 0.00 | 0.00 | 0.00 | 41 | 1005.0 |
| 20260831231554 | 68 | 62 | 6.0 | 11.0 | 0.00 | 0.00 | 0.00 | 40 | 1005.2 |
| 20260831230048 | 68 | 103 | 3.0 | 12.0 | 0.00 | 0.00 | 0.00 | 39 | 1005.3 |
| 20260831224541 | 68 | 55 | 6.0 | 17.0 | 0.00 | 0.00 | 0.00 | 39 | 1005.4 |
| 20260831223041 | 68 | 101 | 4.0 | 13.0 | 0.00 | 0.00 | 0.00 | 39 | 1005.2 |
| 20260831221539 | 68 | 105 | 7.0 | 13.0 | 0.00 | 0.00 | 0.00 | 37 | 1005.5 |
| 20260831220033 | 69 | 91 | 5.0 | 13.0 | 0.00 | 0.00 | 0.00 | 36 | 1005.7 |
| 20260831214532 | 68 | 47 | 3.0 | 14.0 | 0.00 | 0.00 | 0.00 | 37 | 1005.6 |
| 20260831213038 | 69 | 91 | 5.0 | 14.0 | 0.00 | 0.00 | 0.00 | 36 | 1005.7 |
| 20260831211527 | 69 | 77 | 4.0 | 12.0 | 0.00 | 0.00 | 0.00 | 36 | 1005.8 |
| 20260831210026 | 70 | 84 | 6.0 | 13.0 | 0.00 | 0.00 | 0.00 | 36 | 1005.9 |
| 20260831204522 | 70 | 89 | 4.0 | 14.0 | 0.00 | 0.00 | 0.00 | 37 | 1005.6 |
| 20260831203020 | 70 | 75 | 3.0 | 9.0 | 0.00 | 0.00 | 0.00 | 39 | 1005.6 |
| 20260831201514 | 70 | 25 | 3.0 | 10.0 | 0.00 | 0.00 | 0.00 | 45 | 1005.5 |
| 20260831200019 | 68 | 65 | 4.0 | 14.0 | 0.00 | 0.00 | 0.00 | 48 | 1005.4 |
| 20260831194509 | 68 | 40 | 2.0 | 10.0 | 0.00 | 0.00 | 0.00 | 49 | 1005.5 |
| 20260831193010 | 67 | 59 | 4.0 | 11.0 | 0.00 | 0.00 | 0.00 | 51 | 1005.6 |
| 20260831191504 | 68 | 37 | 4.0 | 9.0 | 0.00 | 0.00 | 0.00 | 50 | 1005.6 |
| 20260831190107 | 68 | 80 | 3.0 | 8.0 | 0.00 | 0.00 | 0.00 | 52 | 1005.8 |
| 20260831190001 | 68 | 38 | 3.0 | 11.0 | 0.00 | 0.00 | 0.00 | 52 | 1005.9 |
| 20260831184559 | 67 | 103 | 3.0 | 9.0 | 0.00 | 0.00 | 0.00 | 54 | 1005.8 |
| 20260831183055 | 66 | 109 | 1.0 | 10.0 | 0.00 | 0.00 | 0.00 | 55 | 1005.6 |
| 20260831181553 | 67 | 55 | 5.0 | 13.0 | 0.00 | 0.00 | 0.00 | 54 | 1005.6 |
| 20260831180050 | 66 | 67 | 3.0 | 9.0 | 0.00 | 0.00 | 0.00 | 55 | 1005.6 |
| 20260831174548 | 66 | 104 | 1.0 | 5.0 | 0.00 | 0.00 | 0.00 | 55 | 1005.6 |
| 20260831173046 | 66 | 103 | 2.0 | 7.0 | 0.00 | 0.00 | 0.00 | 54 | 1005.6 |
| 20260831171545 | 66 | 76 | 5.0 | 7.0 | 0.00 | 0.00 | 0.00 | 52 | 1005.6 |
| 20260831170037 | 65 | 82 | 4.0 | 8.0 | 0.00 | 0.00 | 0.00 | 50 | 1005.2 |
| 20260831164535 | 66 | 76 | 2.0 | 7.0 | 0.00 | 0.00 | 0.00 | 49 | 1005.2 |
| 20260831163038 | 66 | 190 | 2.0 | 5.0 | 0.00 | 0.00 | 0.00 | 47 | 1005.0 |
| 20260831161530 | 65 | 103 | 1.0 | 7.0 | 0.00 | 0.00 | 0.00 | 50 | 1004.8 |
| 20260831160026 | 65 | 101 | 2.0 | 4.0 | 0.00 | 0.00 | 0.00 | 50 | 1005.0 |
| 20260831154530 | 65 | 110 | 0.0 | 5.0 | 0.00 | 0.00 | 0.00 | 52 | 1004.9 |
| 20260831153024 | 64 | 93 | 0.0 | 4.0 | 0.00 | 0.00 | 0.00 | 53 | 1004.8 |
| 20260831151514 | 64 | 103 | 2.0 | 5.0 | 0.00 | 0.00 | 0.00 | 51 | 1004.6 |
| 20260831150012 | 63 | 103 | 2.0 | 4.0 | 0.00 | 0.00 | 0.00 | 52 | 1004.5 |
| 20260831144507 | 62 | 112 | 2.0 | 5.0 | 0.00 | 0.00 | 0.00 | 52 | 1004.7 |
| 20260831143003 | 61 | 98 | 0.0 | 3.0 | 0.00 | 0.00 | 0.00 | 53 | 1004.4 |
| 20260831141501 | 61 | 120 | 1.0 | 3.0 | 0.00 | 0.00 | 0.00 | 52 | 1004.2 |
| 20260831140100 | 60 | 101 | 1.0 | 4.0 | 0.00 | 0.00 | 0.00 | 53 | 1004.1 |
| 20260831140001 | 60 | 122 | 0.0 | 3.0 | 0.00 | 0.00 | 0.00 | 53 | 1004.1 |
| 20260831134559 | 60 | 162 | 2.0 | 3.0 | 0.00 | 0.00 | 0.00 | 53 | 1003.8 |
| 20260831133102 | 59 | 124 | 0.0 | 3.0 | 0.00 | 0.00 | 0.00 | 53 | 1003.6 |
| 20260831131603 | 59 | 105 | 1.0 | 4.0 | 0.00 | 0.00 | 0.00 | 53 | 1003.7 |
| 20260831130053 | 59 | 150 | 0.0 | 3.0 | 0.00 | 0.00 | 0.00 | 53 | 1003.8 |
| 20260831124556 | 59 | 133 | 0.0 | 4.0 | 0.00 | 0.00 | 0.00 | 49 | 1003.4 |
| 20260831123054 | 59 | 151 | 0.0 | 3.0 | 0.00 | 0.00 | 0.00 | 44 | 1003.4 |
| 20260831121549 | 59 | 130 | 0.0 | 3.0 | 0.00 | 0.00 | 0.00 | 45 | 1003.6 |
| 20260831120046 | 59 | 122 | 1.0 | 5.0 | 0.00 | 0.00 | 0.00 | 46 | 1003.4 |
| 20260831114551 | 58 | 136 | 1.0 | 3.0 | 0.00 | 0.00 | 0.00 | 47 | 1003.3 |
| 20260831113140 | 59 | 165 | 1.0 | 3.0 | 0.00 | 0.00 | 0.00 | 44 | 1003.3 |
| 20260831111537 | 58 | 162 | 1.0 | 3.0 | 0.00 | 0.00 | 0.00 | 45 | 1003.4 |
| 20260831110035 | 59 | 100 | 0.0 | 7.0 | 0.00 | 0.00 | 0.00 | 46 | 1003.3 |
| 20260831104540 | 59 | 134 | 0.0 | 2.0 | 0.00 | 0.00 | 0.00 | 50 | 1003.3 |
| 20260831103028 | 59 | 134 | 0.0 | 3.0 | 0.00 | 0.00 | 0.00 | 50 | 1003.3 |
| 20260831101525 | 60 | 122 | 2.0 | 4.0 | 0.00 | 0.00 | 0.00 | 49 | 1003.4 |
| 20260831100023 | 60 | 112 | 0.0 | 4.0 | 0.00 | 0.00 | 0.00 | 48 | 1003.4 |